Location: Carri�res
(48.9069°N, 2.1792°E)
Time: 19:03:33
(UTC+00:00)

SeaSat 1 - Pass Details

Date: 10 May 2021
Orbit: 744 x 747 km, 108.0° (Epoch: 12 June)

Event Time Altitude Azimuth Distance (km) Brightness Sun altitude
Rises 00:26:27 0° 27° (NNE) 3,202 7.0 -22.9°
Reaches altitude 10° 00:28:44 10° 26° (NNE) 2,275 6.0 -22.8°
Maximum altitude 00:33:39 72° 303° (WNW) 790 2.5 -22.7°
Enters shadow 00:34:55 49° 236° (WSW) 961 2.7 -22.6°
